Location: Peebles
(55.6412°N, 3.1714°W)
Time: 17:07:35
(UTC+01:00)

Cosmos 1934 Rocket - Pass Details

Date: 30 January 2022
Orbit: 938 x 999 km, 83.0° (Epoch: 25 May)

Event Time Altitude Azimuth Distance (km) Brightness Sun altitude
Rises 19:00:21 0° 345° (NNW) 3,644 7.2 -19.2°
Reaches altitude 10° 19:03:03 10° 337° (NNW) 2,686 6.6 -19.6°
Maximum altitude 19:08:30 35° 274° (W) 1,485 5.6 -20.3°
Drops below altitude 10° 19:13:52 10° 211° (SSW) 2,651 6.7 -21.1°
Sets 19:16:32 0° 203° (SSW) 3,589 7.3 -21.5°
